Time,TemperatureF,DewpointF,PressureIn,WindDirection,WindDirectionDegrees,WindSpeedMPH,WindSpeedGustMPH,Humidity,HourlyPrecipIn,Conditions,Clouds,dailyrainin,SolarRadiationWatts/m^2,SoftwareType,DateUTC
2013-02-18 00:00:00,38.3,23.1,30.07,SSE,164,2.0,4.0,54,0.00,,,0.00,0.00,VWS V14.01,2013-02-18 06:00:00,
2013-02-18 00:05:00,38.3,23.1,30.07,SSE,164,2.0,4.0,54,0.00,,,0.00,0.00,VWS V14.01,2013-02-18 06:05:00,
2013-02-18 00:10:00,38.5,23.8,30.07,South,182,2.0,2.0,55,0.00,,,0.00,0.00,VWS V14.01,2013-02-18 06:10:00,
2013-02-18 00:15:00,38.5,23.8,30.07,South,187,1.0,3.0,55,0.00,,,0.00,0.00,VWS V14.01,2013-02-18 06:15:00,
2013-02-18 00:20:00,38.5,23.8,30.07,South,175,1.0,4.0,55,0.00,,,0.00,0.00,VWS V14.01,2013-02-18 06:20:00,
2013-02-18 00:25:00,38.6,23.8,30.06,South,190,1.0,5.0,55,0.00,,,0.00,0.00,VWS V14.01,2013-02-18 06:25:00,
2013-02-18 00:30:00,38.8,24.5,30.06,SE,132,5.0,5.0,56,0.00,,,0.00,0.00,VWS V14.01,2013-02-18 06:30:00,
2013-02-18 00:35:00,38.9,24.1,30.06,South,182,2.0,6.0,55,0.00,,,0.00,0.00,VWS V14.01,2013-02-18 06:35:00,
2013-02-18 00:40:00,39.1,24.3,30.06,SSW,207,2.0,4.0,55,0.00,,,0.00,0.00,VWS V14.01,2013-02-18 06:40:00,
2013-02-18 00:45:00,39.2,24.4,30.06,South,184,3.0,5.0,55,0.00,,,0.00,0.00,VWS V14.01,2013-02-18 06:45:00,
2013-02-18 00:50:00,39.3,24.1,30.06,SSW,196,1.0,3.0,54,0.00,,,0.00,0.00,VWS V14.01,2013-02-18 06:50:00,
2013-02-18 00:55:00,39.5,24.7,30.05,SW,218,2.0,5.0,55,0.00,,,0.00,0.00,VWS V14.01,2013-02-18 06:55:00,
2013-02-18 01:00:00,39.5,24.2,30.05,SSW,209,2.0,5.0,54,0.00,,,0.00,0.00,VWS V14.01,2013-02-18 07:00:00,
2013-02-18 01:05:00,39.6,24.3,30.05,SSW,197,3.0,5.0,54,0.00,,,0.00,0.00,VWS V14.01,2013-02-18 07:05:00,
2013-02-18 01:10:00,39.8,24.5,30.05,SSW,210,4.0,6.0,54,0.00,,,0.00,0.00,VWS V14.01,2013-02-18 07:10:00,
2013-02-18 01:15:00,39.9,25.1,30.05,SW,219,5.0,6.0,55,0.00,,,0.00,0.00,VWS V14.01,2013-02-18 07:15:00,
2013-02-18 01:20:00,39.9,25.1,30.05,SSW,192,2.0,6.0,55,0.00,,,0.00,0.00,VWS V14.01,2013-02-18 07:20:00,
2013-02-18 01:25:00,40.1,25.2,30.05,South,188,3.0,7.0,55,0.00,,,0.00,0.00,VWS V14.01,2013-02-18 07:25:00,
2013-02-18 01:30:00,40.2,25.3,30.05,SSW,209,0.0,4.0,55,0.00,,,0.00,0.00,VWS V14.01,2013-02-18 07:30:00,
2013-02-18 01:35:00,40.3,25.0,30.05,SW,226,2.0,6.0,54,0.00,,,0.00,0.00,VWS V14.01,2013-02-18 07:35:00,
2013-02-18 01:40:00,40.5,25.2,30.05,SSW,195,5.0,8.0,54,0.00,,,0.00,0.00,VWS V14.01,2013-02-18 07:40:00,
2013-02-18 01:45:00,40.8,25.5,30.05,SW,217,3.0,10.0,54,0.00,,,0.00,0.00,VWS V14.01,2013-02-18 07:45:00,
2013-02-18 01:50:00,40.9,25.1,30.05,South,191,3.0,6.0,53,0.00,,,0.00,0.00,VWS V14.01,2013-02-18 07:50:00,
2013-02-18 01:55:00,41.2,25.4,30.05,SSW,200,5.0,8.0,53,0.00,,,0.00,0.00,VWS V14.01,2013-02-18 07:55:00,
2013-02-18 02:00:00,41.2,25.4,30.05,SSW,200,8.0,9.0,53,0.00,,,0.00,0.00,VWS V14.01,2013-02-18 08:00:00,
2013-02-18 02:05:00,41.3,25.5,30.05,SSW,200,2.0,9.0,53,0.00,,,0.00,0.00,VWS V14.01,2013-02-18 08:05:00,
2013-02-18 02:10:00,41.3,25.5,30.05,SW,236,6.0,7.0,53,0.00,,,0.00,0.00,VWS V14.01,2013-02-18 08:10:00,
2013-02-18 02:15:00,41.3,25.5,30.05,West,268,5.0,9.0,53,0.00,,,0.00,0.00,VWS V14.01,2013-02-18 08:15:00,
2013-02-18 02:20:00,41.5,25.7,30.05,South,190,4.0,7.0,53,0.00,,,0.00,0.00,VWS V14.01,2013-02-18 08:20:00,
2013-02-18 02:25:00,41.5,25.7,30.04,SW,221,3.0,7.0,53,0.00,,,0.00,0.00,VWS V14.01,2013-02-18 08:25:00,
2013-02-18 02:30:00,41.5,25.7,30.04,SW,223,2.0,8.0,53,0.00,,,0.00,0.00,VWS V14.01,2013-02-18 08:30:00,
2013-02-18 02:35:00,41.5,25.7,30.04,SW,215,2.0,8.0,53,0.00,,,0.00,0.00,VWS V14.01,2013-02-18 08:35:00,
2013-02-18 02:40:00,41.5,25.7,30.04,SW,232,2.0,7.0,53,0.00,,,0.00,0.00,VWS V14.01,2013-02-18 08:40:00,
2013-02-18 02:45:00,41.5,26.1,30.04,SW,217,3.0,7.0,54,0.00,,,0.00,0.00,VWS V14.01,2013-02-18 08:45:00,
2013-02-18 02:50:00,41.5,26.1,30.04,SSW,193,2.0,5.0,54,0.00,,,0.00,0.00,VWS V14.01,2013-02-18 08:50:00,
2013-02-18 02:55:00,41.5,26.1,30.03,SSW,207,3.0,8.0,54,0.00,,,0.00,0.00,VWS V14.01,2013-02-18 08:55:00,
2013-02-18 03:00:00,41.5,26.5,30.03,SSW,208,6.0,8.0,55,0.00,,,0.00,0.00,VWS V14.01,2013-02-18 09:00:00,
2013-02-18 03:05:00,41.5,26.1,30.03,South,173,2.0,8.0,54,0.00,,,0.00,0.00,VWS V14.01,2013-02-18 09:05:00,
2013-02-18 03:10:00,41.6,26.6,30.04,SW,236,2.0,6.0,55,0.00,,,0.00,0.00,VWS V14.01,2013-02-18 09:10:00,
2013-02-18 03:15:00,41.6,26.6,30.04,SW,214,3.0,6.0,55,0.00,,,0.00,0.00,VWS V14.01,2013-02-18 09:15:00,
2013-02-18 03:20:00,41.6,26.6,30.04,SSW,213,2.0,5.0,55,0.00,,,0.00,0.00,VWS V14.01,2013-02-18 09:20:00,
2013-02-18 03:25:00,41.6,26.6,30.04,SSW,193,4.0,7.0,55,0.00,,,0.00,0.00,VWS V14.01,2013-02-18 09:25:00,
2013-02-18 03:30:00,41.8,26.8,30.04,SSW,195,3.0,5.0,55,0.00,,,0.00,0.00,VWS V14.01,2013-02-18 09:30:00,
2013-02-18 03:35:00,41.8,27.3,30.04,WSW,246,7.0,8.0,56,0.00,,,0.00,0.00,VWS V14.01,2013-02-18 09:35:00,
2013-02-18 03:40:00,41.8,27.3,30.04,SSW,206,2.0,7.0,56,0.00,,,0.00,0.00,VWS V14.01,2013-02-18 09:40:00,
2013-02-18 03:45:00,41.8,27.3,30.04,SW,215,1.0,7.0,56,0.00,,,0.00,0.00,VWS V14.01,2013-02-18 09:45:00,
2013-02-18 03:50:00,41.8,27.3,30.04,SSW,211,2.0,5.0,56,0.00,,,0.00,0.00,VWS V14.01,2013-02-18 09:50:00,
2013-02-18 03:55:00,41.8,27.7,30.04,SSW,213,1.0,6.0,57,0.00,,,0.00,0.00,VWS V14.01,2013-02-18 09:55:00,
2013-02-18 04:00:00,41.8,27.7,30.04,SSW,208,3.0,5.0,57,0.00,,,0.00,0.00,VWS V14.01,2013-02-18 10:00:00,
2013-02-18 04:05:00,41.6,27.5,30.04,SSW,210,6.0,6.0,57,0.00,,,0.00,0.00,VWS V14.01,2013-02-18 10:05:00,
2013-02-18 04:10:00,41.8,27.7,30.05,SW,221,4.0,9.0,57,0.00,,,0.00,0.00,VWS V14.01,2013-02-18 10:10:00,
2013-02-18 04:15:00,41.8,27.7,30.05,SW,219,4.0,9.0,57,0.00,,,0.00,0.00,VWS V14.01,2013-02-18 10:15:00,
2013-02-18 04:20:00,41.8,28.1,30.05,SW,219,1.0,4.0,58,0.00,,,0.00,0.00,VWS V14.01,2013-02-18 10:20:00,
2013-02-18 04:25:00,41.8,28.1,30.05,SW,215,0.0,5.0,58,0.00,,,0.00,0.00,VWS V14.01,2013-02-18 10:25:00,
2013-02-18 04:30:00,41.8,28.1,30.05,SW,217,3.0,7.0,58,0.00,,,0.00,0.00,VWS V14.01,2013-02-18 10:30:00,
2013-02-18 04:35:00,41.6,28.4,30.05,SW,215,3.0,8.0,59,0.00,,,0.00,0.00,VWS V14.01,2013-02-18 10:35:00,
2013-02-18 04:40:00,41.6,28.4,30.05,SSW,198,3.0,4.0,59,0.00,,,0.00,0.00,VWS V14.01,2013-02-18 10:40:00,
2013-02-18 04:45:00,41.6,28.8,30.05,SW,222,1.0,6.0,60,0.00,,,0.00,0.00,VWS V14.01,2013-02-18 10:45:00,
2013-02-18 04:50:00,41.6,28.8,30.05,SSW,200,3.0,4.0,60,0.00,,,0.00,0.00,VWS V14.01,2013-02-18 10:50:00,
2013-02-18 04:55:00,41.6,28.8,30.05,SW,221,4.0,6.0,60,0.00,,,0.00,0.00,VWS V14.01,2013-02-18 10:55:00,
2013-02-18 05:00:00,41.6,29.2,30.05,SW,216,5.0,9.0,61,0.00,,,0.00,0.00,VWS V14.01,2013-02-18 11:00:00,
2013-02-18 05:05:00,41.6,29.2,30.05,SW,221,3.0,9.0,61,0.00,,,0.00,0.00,VWS V14.01,2013-02-18 11:05:00,
2013-02-18 05:10:00,41.6,29.2,30.05,SSW,213,2.0,6.0,61,0.00,,,0.00,0.00,VWS V14.01,2013-02-18 11:10:00,
2013-02-18 05:15:00,41.6,29.6,30.05,SW,221,1.0,6.0,62,0.00,,,0.00,0.00,VWS V14.01,2013-02-18 11:15:00,
2013-02-18 05:20:00,41.6,29.6,30.05,SSW,202,2.0,7.0,62,0.00,,,0.00,0.00,VWS V14.01,2013-02-18 11:20:00,
2013-02-18 05:25:00,41.6,30.0,30.06,SW,215,3.0,7.0,63,0.00,,,0.00,0.00,VWS V14.01,2013-02-18 11:25:00,
2013-02-18 05:30:00,41.6,30.0,30.06,SW,221,3.0,4.0,63,0.00,,,0.00,0.00,VWS V14.01,2013-02-18 11:30:00,
2013-02-18 05:35:00,41.6,30.0,30.06,SW,215,1.0,7.0,63,0.00,,,0.00,0.00,VWS V14.01,2013-02-18 11:35:00,
2013-02-18 05:40:00,41.5,30.2,30.06,SW,219,1.0,4.0,64,0.00,,,0.00,0.00,VWS V14.01,2013-02-18 11:40:00,
2013-02-18 05:45:00,41.3,30.1,30.06,SW,221,3.0,5.0,64,0.00,,,0.00,0.00,VWS V14.01,2013-02-18 11:45:00,
2013-02-18 05:50:00,41.2,30.3,30.06,South,183,3.0,7.0,65,0.00,,,0.00,0.00,VWS V14.01,2013-02-18 11:50:00,
2013-02-18 05:55:00,41.2,30.3,30.06,SW,218,1.0,7.0,65,0.00,,,0.00,0.00,VWS V14.01,2013-02-18 11:55:00,
2013-02-18 06:00:00,41.1,30.6,30.06,SW,220,3.0,7.0,66,0.00,,,0.00,0.00,VWS V14.01,2013-02-18 12:00:00,
2013-02-18 06:05:00,41.1,30.6,30.06,ESE,121,4.0,7.0,66,0.00,,,0.00,0.00,VWS V14.01,2013-02-18 12:05:00,
2013-02-18 06:10:00,41.1,30.6,30.06,South,184,3.0,6.0,66,0.00,,,0.00,0.00,VWS V14.01,2013-02-18 12:10:00,
2013-02-18 06:15:00,40.9,30.8,30.06,SSW,193,4.0,6.0,67,0.00,,,0.00,0.00,VWS V14.01,2013-02-18 12:15:00,
2013-02-18 06:20:00,40.9,30.8,30.06,SW,235,5.0,5.0,67,0.00,,,0.00,0.00,VWS V14.01,2013-02-18 12:20:00,
2013-02-18 06:25:00,40.9,30.8,30.06,SSW,199,2.0,7.0,67,0.00,,,0.00,0.00,VWS V14.01,2013-02-18 12:25:00,
2013-02-18 06:30:00,40.9,31.2,30.06,SSW,202,4.0,6.0,68,0.00,,,0.00,0.00,VWS V14.01,2013-02-18 12:30:00,
2013-02-18 06:35:00,40.9,31.2,30.06,SW,219,0.0,9.0,68,0.00,,,0.00,0.00,VWS V14.01,2013-02-18 12:35:00,
2013-02-18 06:40:00,40.9,31.2,30.06,SW,215,2.0,7.0,68,0.00,,,0.00,5.00,VWS V14.01,2013-02-18 12:40:00,
2013-02-18 06:45:00,40.9,31.5,30.06,South,188,1.0,9.0,69,0.00,,,0.00,9.00,VWS V14.01,2013-02-18 12:45:00,
2013-02-18 06:50:00,41.1,31.7,30.06,SW,219,4.0,6.0,69,0.00,,,0.00,12.00,VWS V14.01,2013-02-18 12:50:00,
2013-02-18 06:55:00,41.1,31.7,30.06,SSW,211,4.0,7.0,69,0.00,,,0.00,19.00,VWS V14.01,2013-02-18 12:55:00,
2013-02-18 07:00:00,41.2,31.8,30.06,SW,221,4.0,9.0,69,0.00,,,0.00,28.00,VWS V14.01,2013-02-18 13:00:00,
2013-02-18 07:05:00,41.3,31.9,30.06,SSW,212,4.0,9.0,69,0.00,,,0.00,37.00,VWS V14.01,2013-02-18 13:05:00,
2013-02-18 07:10:00,41.5,32.5,30.06,SSW,210,7.0,7.0,70,0.00,,,0.00,49.00,VWS V14.01,2013-02-18 13:10:00,
2013-02-18 07:15:00,41.6,32.6,30.06,SSW,207,3.0,7.0,70,0.00,,,0.00,56.00,VWS V14.01,2013-02-18 13:15:00,
2013-02-18 07:20:00,41.9,32.5,30.06,SSW,213,5.0,7.0,69,0.00,,,0.00,40.00,VWS V14.01,2013-02-18 13:20:00,
2013-02-18 07:25:00,42.2,32.8,30.07,SW,214,4.0,10.0,69,0.00,,,0.00,54.00,VWS V14.01,2013-02-18 13:25:00,
2013-02-18 07:30:00,42.5,32.7,30.07,SSW,207,2.0,9.0,68,0.00,,,0.00,70.00,VWS V14.01,2013-02-18 13:30:00,
2013-02-18 07:35:00,42.9,33.1,30.07,WSW,240,3.0,9.0,68,0.00,,,0.00,74.00,VWS V14.01,2013-02-18 13:35:00,
2013-02-18 07:40:00,43.2,33.4,30.07,South,178,9.0,9.0,68,0.00,,,0.00,97.00,VWS V14.01,2013-02-18 13:40:00,
2013-02-18 07:45:00,43.8,33.6,30.07,SW,217,4.0,10.0,67,0.00,,,0.00,116.00,VWS V14.01,2013-02-18 13:45:00,
2013-02-18 07:50:00,44.1,33.5,30.07,SSW,202,2.0,7.0,66,0.00,,,0.00,120.00,VWS V14.01,2013-02-18 13:50:00,
2013-02-18 07:55:00,44.5,33.9,30.08,SE,136,5.0,7.0,66,0.00,,,0.00,178.00,VWS V14.01,2013-02-18 13:55:00,
2013-02-18 08:00:00,44.9,33.9,30.08,SW,217,9.0,13.0,65,0.00,,,0.00,113.00,VWS V14.01,2013-02-18 14:00:00,
2013-02-18 08:05:00,45.2,34.2,30.08,SW,217,2.0,13.0,65,0.00,,,0.00,156.00,VWS V14.01,2013-02-18 14:05:00,
2013-02-18 08:10:00,45.7,34.6,30.08,SSW,192,4.0,7.0,65,0.00,,,0.00,163.00,VWS V14.01,2013-02-18 14:10:00,
2013-02-18 08:15:00,46.1,34.6,30.08,SW,233,4.0,8.0,64,0.00,,,0.00,193.00,VWS V14.01,2013-02-18 14:15:00,
2013-02-18 08:20:00,46.4,34.5,30.08,SSW,202,4.0,6.0,63,0.00,,,0.00,176.00,VWS V14.01,2013-02-18 14:20:00,
2013-02-18 08:25:00,46.8,34.9,30.08,SSW,195,2.0,8.0,63,0.00,,,0.00,206.00,VWS V14.01,2013-02-18 14:25:00,
2013-02-18 08:30:00,47.1,34.8,30.08,South,184,2.0,7.0,62,0.00,,,0.00,272.00,VWS V14.01,2013-02-18 14:30:00,
2013-02-18 08:35:00,47.6,34.8,30.08,SW,224,2.0,8.0,61,0.00,,,0.00,176.00,VWS V14.01,2013-02-18 14:35:00,
2013-02-18 08:40:00,47.7,34.5,30.07,SSW,212,6.0,8.0,60,0.00,,,0.00,121.00,VWS V14.01,2013-02-18 14:40:00,
2013-02-18 08:45:00,47.7,34.5,30.07,SW,234,3.0,10.0,60,0.00,,,0.00,169.00,VWS V14.01,2013-02-18 14:45:00,
2013-02-18 08:50:00,47.9,34.7,30.07,SW,219,10.0,10.0,60,0.00,,,0.00,269.00,VWS V14.01,2013-02-18 14:50:00,
2013-02-18 08:55:00,48.2,35.0,30.07,SW,234,3.0,10.0,60,0.00,,,0.00,188.00,VWS V14.01,2013-02-18 14:55:00,
2013-02-18 09:00:00,48.3,35.1,30.07,SSW,209,2.0,9.0,60,0.00,,,0.00,255.00,VWS V14.01,2013-02-18 15:00:00,
2013-02-18 09:05:00,48.9,35.6,30.07,South,188,3.0,9.0,60,0.00,,,0.00,454.00,VWS V14.01,2013-02-18 15:05:00,
2013-02-18 09:10:00,49.6,35.0,30.07,SW,227,8.0,16.0,57,0.00,,,0.00,281.00,VWS V14.01,2013-02-18 15:10:00,
2013-02-18 09:15:00,49.9,35.3,30.07,SSW,213,2.0,16.0,57,0.00,,,0.00,339.00,VWS V14.01,2013-02-18 15:15:00,
2013-02-18 09:20:00,50.2,35.6,30.07,SW,222,6.0,8.0,57,0.00,,,0.00,311.00,VWS V14.01,2013-02-18 15:20:00,
2013-02-18 09:25:00,50.7,36.5,30.06,SSW,213,4.0,10.0,58,0.00,,,0.00,443.00,VWS V14.01,2013-02-18 15:25:00,
2013-02-18 09:30:00,51.1,36.4,30.06,SW,215,5.0,6.0,57,0.00,,,0.00,462.00,VWS V14.01,2013-02-18 15:30:00,
2013-02-18 09:35:00,51.7,36.5,30.06,SSW,193,6.0,9.0,56,0.00,,,0.00,515.00,VWS V14.01,2013-02-18 15:35:00,
2013-02-18 09:40:00,52.2,36.1,30.05,SW,218,5.0,11.0,54,0.00,,,0.00,540.00,VWS V14.01,2013-02-18 15:40:00,
2013-02-18 09:45:00,52.8,35.7,30.05,South,187,3.0,11.0,52,0.00,,,0.00,424.00,VWS V14.01,2013-02-18 15:45:00,
2013-02-18 09:50:00,53.2,35.1,30.05,SSW,194,10.0,10.0,50,0.00,,,0.00,543.00,VWS V14.01,2013-02-18 15:50:00,
2013-02-18 09:55:00,53.3,34.7,30.04,SW,229,9.0,15.0,49,0.00,,,0.00,506.00,VWS V14.01,2013-02-18 15:55:00,
2013-02-18 10:00:00,53.6,34.4,30.04,SSW,213,3.0,14.0,48,0.00,,,0.00,552.00,VWS V14.01,2013-02-18 16:00:00,
2013-02-18 10:05:00,54.1,34.3,30.04,SSW,203,5.0,15.0,47,0.00,,,0.00,559.00,VWS V14.01,2013-02-18 16:05:00,
2013-02-18 10:10:00,54.4,33.5,30.03,SW,224,6.0,15.0,45,0.00,,,0.00,564.00,VWS V14.01,2013-02-18 16:10:00,
2013-02-18 10:15:00,54.8,33.9,30.03,SSW,202,5.0,15.0,45,0.00,,,0.00,575.00,VWS V14.01,2013-02-18 16:15:00,
2013-02-18 10:20:00,55.4,33.9,30.03,SSW,213,7.0,10.0,44,0.00,,,0.00,582.00,VWS V14.01,2013-02-18 16:20:00,
2013-02-18 10:25:00,55.9,33.2,30.03,SW,232,5.0,10.0,42,0.00,,,0.00,592.00,VWS V14.01,2013-02-18 16:25:00,
2013-02-18 10:30:00,56.2,32.8,30.03,South,188,9.0,10.0,41,0.00,,,0.00,603.00,VWS V14.01,2013-02-18 16:30:00,
2013-02-18 10:35:00,56.5,32.5,30.03,West,263,3.0,13.0,40,0.00,,,0.00,457.00,VWS V14.01,2013-02-18 16:35:00,
2013-02-18 10:40:00,56.7,33.3,30.02,South,175,6.0,10.0,41,0.00,,,0.00,522.00,VWS V14.01,2013-02-18 16:40:00,
2013-02-18 10:45:00,57.2,33.1,30.02,SSW,209,8.0,10.0,40,0.00,,,0.00,619.00,VWS V14.01,2013-02-18 16:45:00,
2013-02-18 10:50:00,57.5,32.8,30.02,SW,227,6.0,15.0,39,0.00,,,0.00,561.00,VWS V14.01,2013-02-18 16:50:00,
2013-02-18 10:55:00,57.6,32.8,30.01,SW,225,9.0,15.0,39,0.00,,,0.00,599.00,VWS V14.01,2013-02-18 16:55:00,
2013-02-18 11:00:00,57.6,32.8,30.01,SW,220,6.0,10.0,39,0.00,,,0.00,617.00,VWS V14.01,2013-02-18 17:00:00,
2013-02-18 11:05:00,57.6,33.5,30.01,SSW,211,9.0,15.0,40,0.00,,,0.00,643.00,VWS V14.01,2013-02-18 17:05:00,
2013-02-18 11:10:00,57.8,32.4,30.01,SSW,204,4.0,16.0,38,0.00,,,0.00,663.00,VWS V14.01,2013-02-18 17:10:00,
2013-02-18 11:15:00,58.1,33.3,30.01,SSW,203,5.0,16.0,39,0.00,,,0.00,577.00,VWS V14.01,2013-02-18 17:15:00,
2013-02-18 11:20:00,58.4,32.9,30.01,SSW,211,3.0,16.0,38,0.00,,,0.00,661.00,VWS V14.01,2013-02-18 17:20:00,
2013-02-18 11:25:00,58.4,32.9,30.00,SW,223,7.0,16.0,38,0.00,,,0.00,647.00,VWS V14.01,2013-02-18 17:25:00,
2013-02-18 11:30:00,58.6,33.1,30.00,SSW,212,8.0,14.0,38,0.00,,,0.00,534.00,VWS V14.01,2013-02-18 17:30:00,
2013-02-18 11:35:00,58.7,33.2,30.00,WSW,238,18.0,18.0,38,0.00,,,0.00,694.00,VWS V14.01,2013-02-18 17:35:00,
2013-02-18 11:40:00,58.7,33.8,29.99,SSW,205,6.0,17.0,39,0.00,,,0.00,693.00,VWS V14.01,2013-02-18 17:40:00,
2013-02-18 11:45:00,58.9,33.4,29.99,SSW,212,5.0,21.0,38,0.00,,,0.00,719.00,VWS V14.01,2013-02-18 17:45:00,
2013-02-18 11:50:00,59.3,34.4,29.99,WSW,242,9.0,15.0,39,0.00,,,0.00,735.00,VWS V14.01,2013-02-18 17:50:00,
2013-02-18 11:56:00,59.5,35.2,29.98,SW,222,5.0,19.0,40,0.00,,,0.00,752.00,VWS V14.01,2013-02-18 17:56:00,
2013-02-18 12:00:00,61.0,37.8,29.92,WSW,246,6.0,16.0,42,0.00,,,0.00,167.00,VWS V14.01,2013-02-18 18:00:00,
2013-02-18 12:01:00,59.6,34.6,29.98,SW,236,9.0,21.0,39,0.00,,,0.00,504.00,VWS V14.01,2013-02-18 18:01:00,
2013-02-18 12:06:00,59.9,35.5,29.98,West,260,6.0,21.0,40,0.00,,,0.00,385.00,VWS V14.01,2013-02-18 18:06:00,
2013-02-18 12:10:00,60.1,37.0,29.92,SSW,204,15.0,29.0,42,0.00,,,0.00,160.00,VWS V14.01,2013-02-18 18:10:00,
2013-02-18 12:11:00,60.2,35.8,29.96,SSW,198,3.0,13.0,40,0.00,,,0.00,566.00,VWS V14.01,2013-02-18 18:11:00,
2013-02-18 12:16:00,60.4,36.0,29.96,SSW,200,7.0,19.0,40,0.00,,,0.00,95.00,VWS V14.01,2013-02-18 18:16:00,
2013-02-18 12:20:00,59.5,37.6,29.91,South,188,9.0,16.0,44,0.00,,,0.00,232.00,VWS V14.01,2013-02-18 18:20:00,
2013-02-18 12:21:00,60.7,36.3,29.96,South,190,5.0,9.0,40,0.00,,,0.00,53.00,VWS V14.01,2013-02-18 18:21:00,
2013-02-18 12:26:00,61.0,35.9,29.95,SW,215,4.0,16.0,39,0.00,,,0.00,348.00,VWS V14.01,2013-02-18 18:26:00,
2013-02-18 12:30:00,59.9,37.4,29.90,South,182,15.0,21.0,43,0.00,,,0.00,255.00,VWS V14.01,2013-02-18 18:30:00,
2013-02-18 12:31:00,61.2,36.1,29.95,SW,219,12.0,14.0,39,0.00,,,0.00,373.00,VWS V14.01,2013-02-18 18:31:00,
2013-02-18 12:36:00,61.0,35.9,29.95,SW,215,8.0,17.0,39,0.00,,,0.00,621.00,VWS V14.01,2013-02-18 18:36:00,
2013-02-18 12:40:00,60.1,36.3,29.90,SW,215,13.0,18.0,41,0.00,,,0.00,148.00,VWS V14.01,2013-02-18 18:40:00,
2013-02-18 12:41:00,61.2,36.7,29.95,WSW,238,10.0,16.0,40,0.00,,,0.00,443.00,VWS V14.01,2013-02-18 18:41:00,
2013-02-18 12:46:00,61.3,36.2,29.95,WSW,242,7.0,18.0,39,0.00,,,0.00,673.00,VWS V14.01,2013-02-18 18:46:00,
2013-02-18 12:50:00,59.6,37.1,29.88,SW,221,10.0,23.0,43,0.00,,,0.00,153.00,VWS V14.01,2013-02-18 18:50:00,
2013-02-18 12:51:00,61.5,37.6,29.95,WSW,240,5.0,20.0,41,0.00,,,0.00,381.00,VWS V14.01,2013-02-18 18:51:00,
2013-02-18 12:56:00,61.6,37.1,29.93,SW,221,8.0,20.0,40,0.00,,,0.00,167.00,VWS V14.01,2013-02-18 18:56:00,
2013-02-18 13:00:00,59.3,36.8,29.87,East,87,10.0,16.0,43,0.00,,,0.00,165.00,VWS V14.01,2013-02-18 19:00:00,
2013-02-18 13:01:00,61.3,38.0,29.93,SW,222,4.0,16.0,42,0.00,,,0.00,236.00,VWS V14.01,2013-02-18 19:01:00,
2013-02-18 13:06:00,61.0,37.8,29.93,SW,223,5.0,16.0,42,0.00,,,0.00,178.00,VWS V14.01,2013-02-18 19:06:00,
2013-02-18 13:10:00,59.6,37.1,29.87,SW,226,4.0,17.0,43,0.00,,,0.00,190.00,VWS V14.01,2013-02-18 19:10:00,
2013-02-18 13:11:00,60.7,36.9,29.92,WSW,241,7.0,29.0,41,0.00,,,0.00,160.00,VWS V14.01,2013-02-18 19:11:00,
2013-02-18 13:16:00,60.2,37.0,29.92,WSW,241,9.0,29.0,42,0.00,,,0.00,169.00,VWS V14.01,2013-02-18 19:16:00,
2013-02-18 13:20:00,59.9,37.4,29.86,SW,215,7.0,22.0,43,0.00,,,0.00,193.00,VWS V14.01,2013-02-18 19:20:00,
2013-02-18 13:21:00,59.8,37.3,29.92,SSW,212,9.0,16.0,43,0.00,,,0.00,146.00,VWS V14.01,2013-02-18 19:21:00,
2013-02-18 13:26:00,59.5,37.6,29.91,SW,215,4.0,16.0,44,0.00,,,0.00,148.00,VWS V14.01,2013-02-18 19:26:00,
2013-02-18 13:30:00,60.4,37.8,29.85,South,175,8.0,19.0,43,0.00,,,0.00,144.00,VWS V14.01,2013-02-18 19:30:00,
2013-02-18 13:31:00,59.5,37.6,29.91,South,180,8.0,21.0,44,0.00,,,0.00,281.00,VWS V14.01,2013-02-18 19:31:00,
2013-02-18 13:36:00,59.6,37.7,29.91,SW,215,7.0,21.0,44,0.00,,,0.00,301.00,VWS V14.01,2013-02-18 19:36:00,
2013-02-18 13:40:00,60.2,37.6,29.85,WSW,252,10.0,24.0,43,0.00,,,0.00,127.00,VWS V14.01,2013-02-18 19:40:00,
2013-02-18 13:41:00,60.1,37.0,29.90,South,176,7.0,15.0,42,0.00,,,0.00,209.00,VWS V14.01,2013-02-18 19:41:00,
2013-02-18 13:46:00,60.2,37.0,29.90,South,191,7.0,16.0,42,0.00,,,0.00,171.00,VWS V14.01,2013-02-18 19:46:00,
2013-02-18 13:50:00,60.1,38.1,29.84,ESE,112,8.0,16.0,44,0.00,,,0.00,132.00,VWS V14.01,2013-02-18 19:50:00,
2013-02-18 13:51:00,59.9,36.8,29.90,SW,215,11.0,20.0,42,0.00,,,0.00,174.00,VWS V14.01,2013-02-18 19:51:00,
2013-02-18 13:56:00,59.6,37.1,29.88,WSW,240,3.0,23.0,43,0.00,,,0.00,176.00,VWS V14.01,2013-02-18 19:56:00,
2013-02-18 14:00:00,59.9,38.0,29.83,South,185,5.0,20.0,44,0.00,,,0.00,105.00,VWS V14.01,2013-02-18 20:00:00,
2013-02-18 14:01:00,59.5,37.0,29.88,South,184,9.0,15.0,43,0.00,,,0.00,105.00,VWS V14.01,2013-02-18 20:01:00,
2013-02-18 14:06:00,59.5,37.0,29.88,SSW,211,5.0,16.0,43,0.00,,,0.00,151.00,VWS V14.01,2013-02-18 20:06:00,
2013-02-18 14:10:00,59.8,37.9,29.83,SSW,213,14.0,14.0,44,0.00,,,0.00,62.00,VWS V14.01,2013-02-18 20:10:00,
2013-02-18 14:11:00,59.3,36.8,29.87,WSW,244,5.0,17.0,43,0.00,,,0.00,185.00,VWS V14.01,2013-02-18 20:11:00,
2013-02-18 14:16:00,59.5,37.6,29.87,SW,232,10.0,17.0,44,0.00,,,0.00,190.00,VWS V14.01,2013-02-18 20:16:00,
2013-02-18 14:20:00,59.2,40.1,29.82,SSW,198,7.0,14.0,49,0.00,,,0.00,19.00,VWS V14.01,2013-02-18 20:20:00,
2013-02-18 14:21:00,59.6,37.1,29.87,SSW,211,11.0,19.0,43,0.00,,,0.00,258.00,VWS V14.01,2013-02-18 20:21:00,
2013-02-18 14:26:00,59.9,37.4,29.86,SSW,210,7.0,22.0,43,0.00,,,0.00,181.00,VWS V14.01,2013-02-18 20:26:00,
2013-02-18 14:30:00,58.0,41.0,29.82,South,174,5.0,14.0,53,0.00,,,0.00,32.00,VWS V14.01,2013-02-18 20:30:00,
2013-02-18 14:31:00,60.1,38.1,29.86,SSW,199,3.0,8.0,44,0.00,,,0.00,278.00,VWS V14.01,2013-02-18 20:31:00,
2013-02-18 14:36:00,60.2,37.6,29.86,SSW,195,10.0,19.0,43,0.00,,,0.00,144.00,VWS V14.01,2013-02-18 20:36:00,
2013-02-18 14:40:00,57.5,38.5,29.82,South,188,4.0,11.0,49,0.00,,,0.00,16.00,VWS V14.01,2013-02-18 20:40:00,
2013-02-18 14:41:00,60.4,37.8,29.85,SSW,209,8.0,16.0,43,0.00,,,0.00,156.00,VWS V14.01,2013-02-18 20:41:00,
2013-02-18 14:46:00,60.2,37.0,29.85,SW,217,7.0,24.0,42,0.00,,,0.00,137.00,VWS V14.01,2013-02-18 20:46:00,
2013-02-18 14:50:00,57.5,37.5,29.80,SSW,207,7.0,14.0,47,0.00,,,0.00,18.00,VWS V14.01,2013-02-18 20:50:00,
2013-02-18 14:51:00,60.2,37.6,29.85,SW,217,7.0,14.0,43,0.00,,,0.00,141.00,VWS V14.01,2013-02-18 20:51:00,
2013-02-18 14:56:00,60.1,38.1,29.84,SSW,197,4.0,16.0,44,0.00,,,0.00,121.00,VWS V14.01,2013-02-18 20:56:00,
2013-02-18 15:00:00,57.8,37.7,29.79,WSW,247,6.0,15.0,47,0.00,,,0.00,12.00,VWS V14.01,2013-02-18 21:00:00,
2013-02-18 15:01:00,60.1,37.5,29.84,SW,218,9.0,20.0,43,0.00,,,0.00,121.00,VWS V14.01,2013-02-18 21:01:00,
2013-02-18 15:06:00,60.1,38.1,29.84,SW,236,6.0,20.0,44,0.00,,,0.00,116.00,VWS V14.01,2013-02-18 21:06:00,
2013-02-18 15:10:00,58.0,38.4,29.79,SW,219,5.0,14.0,48,0.00,,,0.00,5.00,VWS V14.01,2013-02-18 21:10:00,
2013-02-18 15:11:00,59.9,37.4,29.83,SSW,196,4.0,12.0,43,0.00,,,0.00,98.00,VWS V14.01,2013-02-18 21:11:00,
2013-02-18 15:16:00,59.9,38.0,29.83,SSW,198,7.0,12.0,44,0.00,,,0.00,62.00,VWS V14.01,2013-02-18 21:16:00,
2013-02-18 15:20:00,57.0,42.4,29.81,SW,222,6.0,19.0,58,0.00,,,0.00,0.00,VWS V14.01,2013-02-18 21:20:00,
2013-02-18 15:21:00,59.6,37.7,29.83,SSW,192,5.0,14.0,44,0.00,,,0.00,53.00,VWS V14.01,2013-02-18 21:21:00,
2013-02-18 15:26:00,59.3,39.6,29.82,South,181,6.0,14.0,48,0.00,,,0.00,26.00,VWS V14.01,2013-02-18 21:26:00,
2013-02-18 15:30:00,55.4,44.2,29.82,South,191,3.0,11.0,66,0.02,,,0.02,5.00,VWS V14.01,2013-02-18 21:30:00,
2013-02-18 15:31:00,58.7,39.6,29.82,SW,216,5.0,14.0,49,0.00,,,0.00,23.00,VWS V14.01,2013-02-18 21:31:00,
2013-02-18 15:36:00,58.1,40.6,29.82,SSW,205,5.0,14.0,52,0.00,,,0.00,32.00,VWS V14.01,2013-02-18 21:36:00,
2013-02-18 15:40:00,54.1,45.7,29.82,SSW,197,1.0,10.0,73,0.03,,,0.03,0.00,VWS V14.01,2013-02-18 21:40:00,
2013-02-18 15:41:00,57.8,40.3,29.82,SSW,213,3.0,9.0,52,0.00,,,0.00,39.00,VWS V14.01,2013-02-18 21:41:00,
2013-02-18 15:46:00,57.5,39.5,29.82,SSW,200,8.0,10.0,51,0.00,,,0.00,25.00,VWS V14.01,2013-02-18 21:46:00,
2013-02-18 15:50:00,52.8,45.8,29.80,South,189,2.0,11.0,77,0.03,,,0.03,5.00,VWS V14.01,2013-02-18 21:50:00,
2013-02-18 15:51:00,57.3,37.8,29.82,South,187,5.0,14.0,48,0.00,,,0.00,14.00,VWS V14.01,2013-02-18 21:51:00,
2013-02-18 15:56:00,57.5,38.0,29.80,SSW,195,5.0,14.0,48,0.00,,,0.00,19.00,VWS V14.01,2013-02-18 21:56:00,
2013-02-18 16:00:00,51.6,45.6,29.77,SSW,207,4.0,8.0,80,0.04,,,0.04,18.00,VWS V14.01,2013-02-18 22:00:00,
2013-02-18 16:01:00,57.6,37.5,29.80,SW,219,10.0,13.0,47,0.00,,,0.00,19.00,VWS V14.01,2013-02-18 22:01:00,
2013-02-18 16:06:00,57.8,37.7,29.80,SSW,192,6.0,15.0,47,0.00,,,0.00,14.00,VWS V14.01,2013-02-18 22:06:00,
2013-02-18 16:10:00,51.1,45.2,29.77,SSW,204,6.0,9.0,80,0.04,,,0.04,0.00,VWS V14.01,2013-02-18 22:10:00,
2013-02-18 16:11:00,58.0,38.4,29.79,SSW,213,5.0,14.0,48,0.00,,,0.00,14.00,VWS V14.01,2013-02-18 22:11:00,
2013-02-18 16:16:00,58.0,38.4,29.79,SW,232,3.0,14.0,48,0.00,,,0.00,5.00,VWS V14.01,2013-02-18 22:16:00,
2013-02-18 16:20:00,51.1,45.5,29.76,SSE,163,6.0,14.0,81,0.04,,,0.04,0.00,VWS V14.01,2013-02-18 22:20:00,
2013-02-18 16:21:00,57.8,39.8,29.79,SSW,209,5.0,13.0,51,0.00,,,0.00,0.00,VWS V14.01,2013-02-18 22:21:00,
2013-02-18 16:26:00,57.3,41.8,29.81,SW,234,9.0,19.0,56,0.00,,,0.00,0.00,VWS V14.01,2013-02-18 22:26:00,
2013-02-18 16:30:00,51.1,45.5,29.75,South,172,5.0,9.0,81,0.04,,,0.04,0.00,VWS V14.01,2013-02-18 22:30:00,
2013-02-18 16:31:00,56.5,42.8,29.81,SSW,201,4.0,11.0,60,0.00,,,0.00,0.00,VWS V14.01,2013-02-18 22:31:00,
2013-02-18 16:36:00,55.7,44.1,29.81,SW,214,5.0,11.0,65,0.01,,,0.01,5.00,VWS V14.01,2013-02-18 22:36:00,
2013-02-18 16:40:00,51.1,45.2,29.75,SSW,196,5.0,11.0,80,0.02,,,0.04,0.00,VWS V14.01,2013-02-18 22:40:00,
2013-02-18 16:41:00,54.8,44.5,29.82,SW,218,4.0,10.0,68,0.02,,,0.02,9.00,VWS V14.01,2013-02-18 22:41:00,
2013-02-18 16:46:00,54.2,45.4,29.82,SSW,197,1.0,10.0,72,0.02,,,0.02,0.00,VWS V14.01,2013-02-18 22:46:00,
2013-02-18 16:50:00,51.7,44.7,29.74,SSW,196,5.0,15.0,77,0.01,,,0.04,0.00,VWS V14.01,2013-02-18 22:50:00,
2013-02-18 16:51:00,53.6,45.5,29.82,SSW,197,2.0,4.0,74,0.03,,,0.03,0.00,VWS V14.01,2013-02-18 22:51:00,
2013-02-18 16:56:00,53.1,45.8,29.80,SSW,192,5.0,11.0,76,0.03,,,0.03,0.00,VWS V14.01,2013-02-18 22:56:00,
2013-02-18 17:00:00,52.3,45.0,29.74,ESE,120,8.0,9.0,76,0.01,,,0.04,0.00,VWS V14.01,2013-02-18 23:00:00,
2013-02-18 17:01:00,52.3,45.7,29.80,South,185,4.0,7.0,78,0.03,,,0.03,19.00,VWS V14.01,2013-02-18 23:01:00,
2013-02-18 17:06:00,51.7,45.4,29.80,SSW,213,4.0,8.0,79,0.03,,,0.03,23.00,VWS V14.01,2013-02-18 23:06:00,
2013-02-18 17:10:00,52.5,44.8,29.74,SSW,207,5.0,11.0,75,0.00,,,0.04,0.00,VWS V14.01,2013-02-18 23:10:00,
2013-02-18 17:11:00,51.4,45.5,29.77,South,191,4.0,7.0,80,0.04,,,0.04,12.00,VWS V14.01,2013-02-18 23:11:00,
2013-02-18 17:16:00,51.1,45.2,29.77,SSW,206,8.0,9.0,80,0.04,,,0.04,0.00,VWS V14.01,2013-02-18 23:16:00,
2013-02-18 17:20:00,52.6,44.2,29.73,SSW,194,4.0,9.0,73,0.00,,,0.04,0.00,VWS V14.01,2013-02-18 23:20:00,
2013-02-18 17:21:00,51.1,45.5,29.77,SSW,206,4.0,14.0,81,0.04,,,0.04,0.00,VWS V14.01,2013-02-18 23:21:00,
2013-02-18 17:26:00,51.1,45.2,29.76,South,178,6.0,14.0,80,0.04,,,0.04,0.00,VWS V14.01,2013-02-18 23:26:00,
2013-02-18 17:30:00,52.6,44.2,29.76,SW,221,1.0,12.0,73,0.00,,,0.04,0.00,VWS V14.01,2013-02-18 23:30:00,
2013-02-18 17:31:00,51.1,45.5,29.76,South,180,2.0,9.0,81,0.04,,,0.04,0.00,VWS V14.01,2013-02-18 23:31:00,
2013-02-18 17:36:00,51.1,45.5,29.76,SSW,198,5.0,9.0,81,0.04,,,0.04,0.00,VWS V14.01,2013-02-18 23:36:00,
2013-02-18 17:40:00,52.6,44.9,29.76,SW,219,8.0,11.0,75,0.01,,,0.05,0.00,VWS V14.01,2013-02-18 23:40:00,
2013-02-18 17:41:00,51.1,45.5,29.75,South,174,5.0,9.0,81,0.02,,,0.04,0.00,VWS V14.01,2013-02-18 23:41:00,
2013-02-18 17:46:00,51.1,45.2,29.75,SW,215,4.0,11.0,80,0.02,,,0.04,0.00,VWS V14.01,2013-02-18 23:46:00,
2013-02-18 17:50:00,51.9,45.3,29.75,SSW,193,3.0,9.0,78,0.03,,,0.07,0.00,VWS V14.01,2013-02-18 23:50:00,
2013-02-18 17:52:00,51.3,45.0,29.75,South,190,3.0,15.0,79,0.01,,,0.04,0.00,VWS V14.01,2013-02-18 23:52:00,
2013-02-18 17:57:00,51.6,45.0,29.74,SSW,209,8.0,15.0,78,0.01,,,0.04,0.00,VWS V14.01,2013-02-18 23:57:00,
2013-02-18 18:00:00,51.3,45.3,29.75,South,186,5.0,10.0,80,0.03,,,0.07,0.00,VWS V14.01,2013-02-19 00:00:00,
2013-02-18 18:02:00,52.0,45.0,29.74,SW,219,2.0,8.0,77,0.01,,,0.04,0.00,VWS V14.01,2013-02-19 00:02:00,
2013-02-18 18:07:00,52.3,44.6,29.74,South,184,4.0,9.0,75,0.01,,,0.04,0.00,VWS V14.01,2013-02-19 00:07:00,
2013-02-18 18:10:00,50.7,45.7,29.75,South,175,4.0,10.0,83,0.05,,,0.09,0.00,VWS V14.01,2013-02-19 00:10:00,
2013-02-18 18:12:00,52.5,44.8,29.74,East,100,5.0,9.0,75,0.00,,,0.04,0.00,VWS V14.01,2013-02-19 00:12:00,
2013-02-18 18:17:00,52.5,44.8,29.74,SSE,159,4.0,11.0,75,0.00,,,0.04,0.00,VWS V14.01,2013-02-19 00:17:00,
2013-02-18 18:20:00,50.2,45.9,29.74,SSW,209,3.0,13.0,85,0.08,,,0.12,0.00,VWS V14.01,2013-02-19 00:20:00,
2013-02-18 18:22:00,52.5,44.5,29.74,ESE,117,7.0,8.0,74,0.00,,,0.04,0.00,VWS V14.01,2013-02-19 00:22:00,
2013-02-18 18:27:00,52.5,44.5,29.73,South,190,5.0,9.0,74,0.00,,,0.04,0.00,VWS V14.01,2013-02-19 00:27:00,
2013-02-18 18:30:00,49.9,46.2,29.74,South,191,2.0,8.0,87,0.09,,,0.13,0.00,VWS V14.01,2013-02-19 00:30:00,
2013-02-18 18:32:00,52.6,44.2,29.73,SSW,213,4.0,12.0,73,0.00,,,0.04,0.00,VWS V14.01,2013-02-19 00:32:00,
2013-02-18 18:37:00,52.6,44.2,29.73,SSW,207,3.0,12.0,73,0.00,,,0.04,0.00,VWS V14.01,2013-02-19 00:37:00,
2013-02-18 18:40:00,49.6,46.2,29.74,SSW,199,5.0,10.0,88,0.11,,,0.15,0.00,VWS V14.01,2013-02-19 00:40:00,
2013-02-18 18:42:00,52.6,44.2,29.76,SW,220,4.0,11.0,73,0.00,,,0.04,0.00,VWS V14.01,2013-02-19 00:42:00,
2013-02-18 18:47:00,52.6,44.9,29.76,SSW,203,4.0,11.0,75,0.01,,,0.05,0.00,VWS V14.01,2013-02-19 00:47:00,
2013-02-18 18:50:00,49.5,46.4,29.75,WSW,240,10.0,10.0,89,0.11,,,0.16,0.00,VWS V14.01,2013-02-19 00:50:00,
2013-02-18 18:52:00,52.5,45.2,29.76,SSW,206,5.0,9.0,76,0.02,,,0.06,0.00,VWS V14.01,2013-02-19 00:52:00,
2013-02-18 18:57:00,52.0,45.4,29.75,SE,139,2.0,9.0,78,0.02,,,0.06,0.00,VWS V14.01,2013-02-19 00:57:00,
2013-02-18 19:00:00,49.4,46.6,29.75,SW,218,5.0,10.0,90,0.10,,,0.17,0.00,VWS V14.01,2013-02-19 01:00:00,
2013-02-18 19:02:00,51.6,45.3,29.75,South,171,4.0,9.0,79,0.03,,,0.07,0.00,VWS V14.01,2013-02-19 01:02:00,
2013-02-18 19:07:00,51.3,45.3,29.75,South,184,5.0,10.0,80,0.03,,,0.07,0.00,VWS V14.01,2013-02-19 01:07:00,
2013-02-18 19:10:00,49.4,46.9,29.75,SSW,212,4.0,10.0,91,0.11,,,0.18,0.00,VWS V14.01,2013-02-19 01:10:00,
2013-02-18 19:12:00,51.0,45.4,29.75,SSW,212,5.0,7.0,81,0.04,,,0.08,0.00,VWS V14.01,2013-02-19 01:12:00,
2013-02-18 19:17:00,50.8,45.5,29.75,SSW,202,4.0,10.0,82,0.05,,,0.09,0.00,VWS V14.01,2013-02-19 01:17:00,
2013-02-18 19:20:00,49.2,47.0,29.75,SW,214,8.0,10.0,92,0.10,,,0.19,0.00,VWS V14.01,2013-02-19 01:20:00,
2013-02-18 19:22:00,50.5,45.5,29.75,SE,140,6.0,9.0,83,0.06,,,0.10,0.00,VWS V14.01,2013-02-19 01:22:00,
2013-02-18 19:27:00,50.2,45.9,29.74,South,180,5.0,13.0,85,0.07,,,0.11,0.00,VWS V14.01,2013-02-19 01:27:00,
2013-02-18 19:30:00,49.2,47.0,29.74,South,182,5.0,10.0,92,0.07,,,0.19,0.00,VWS V14.01,2013-02-19 01:30:00,
2013-02-18 19:32:00,50.1,46.1,29.74,SSW,206,3.0,8.0,86,0.09,,,0.13,0.00,VWS V14.01,2013-02-19 01:32:00,
2013-02-18 19:37:00,49.9,46.2,29.74,SSW,204,6.0,8.0,87,0.09,,,0.13,0.00,VWS V14.01,2013-02-19 01:37:00,
2013-02-18 19:40:00,49.1,47.2,29.74,SSW,197,5.0,12.0,93,0.07,,,0.20,0.00,VWS V14.01,2013-02-19 01:40:00,
2013-02-18 19:42:00,49.8,46.1,29.74,SW,219,5.0,6.0,87,0.10,,,0.14,0.00,VWS V14.01,2013-02-19 01:42:00,
2013-02-18 19:47:00,49.8,46.4,29.74,SSW,206,2.0,10.0,88,0.11,,,0.15,0.00,VWS V14.01,2013-02-19 01:47:00,
2013-02-18 19:50:00,49.1,47.2,29.74,SW,228,11.0,12.0,93,0.06,,,0.21,0.00,VWS V14.01,2013-02-19 01:50:00,
2013-02-18 19:52:00,49.6,46.2,29.74,South,188,3.0,7.0,88,0.10,,,0.15,0.00,VWS V14.01,2013-02-19 01:52:00,
2013-02-18 19:57:00,49.5,46.4,29.75,SSW,197,4.0,9.0,89,0.11,,,0.16,0.00,VWS V14.01,2013-02-19 01:57:00,
2013-02-18 20:00:00,49.2,47.5,29.74,SW,216,4.0,14.0,94,0.08,,,0.24,0.00,VWS V14.01,2013-02-19 02:00:00,
2013-02-18 20:02:00,49.5,46.4,29.75,SSW,205,3.0,10.0,89,0.10,,,0.17,0.00,VWS V14.01,2013-02-19 02:02:00,
2013-02-18 20:07:00,49.4,46.6,29.75,SSW,213,3.0,10.0,90,0.10,,,0.17,0.00,VWS V14.01,2013-02-19 02:07:00,
2013-02-18 20:10:00,48.5,46.6,29.74,WNW,284,5.0,20.0,93,0.12,,,0.29,0.00,VWS V14.01,2013-02-19 02:10:00,
2013-02-18 20:12:00,49.4,46.6,29.75,South,189,2.0,7.0,90,0.10,,,0.17,0.00,VWS V14.01,2013-02-19 02:12:00,
2013-02-18 20:17:00,49.4,46.9,29.75,SW,216,5.0,10.0,91,0.11,,,0.18,0.00,VWS V14.01,2013-02-19 02:17:00,
2013-02-18 20:20:00,47.6,45.7,29.82,SW,217,5.0,8.0,93,0.15,,,0.33,0.00,VWS V14.01,2013-02-19 02:20:00,
2013-02-18 20:22:00,49.2,46.7,29.75,SSE,153,6.0,10.0,91,0.09,,,0.18,0.00,VWS V14.01,2013-02-19 02:22:00,
2013-02-18 20:27:00,49.2,47.0,29.75,South,184,5.0,10.0,92,0.10,,,0.19,0.00,VWS V14.01,2013-02-19 02:27:00,
2013-02-18 20:30:00,47.3,45.7,29.83,SW,223,3.0,9.0,94,0.16,,,0.35,0.00,VWS V14.01,2013-02-19 02:30:00,
2013-02-18 20:32:00,49.2,47.0,29.75,SSE,163,4.0,8.0,92,0.07,,,0.19,0.00,VWS V14.01,2013-02-19 02:32:00,
2013-02-18 20:37:00,49.2,47.0,29.75,SW,216,6.0,10.0,92,0.07,,,0.19,0.00,VWS V14.01,2013-02-19 02:37:00,
2013-02-18 20:40:00,47.1,45.5,29.83,West,260,0.0,6.0,94,0.18,,,0.37,0.00,VWS V14.01,2013-02-19 02:40:00,
2013-02-18 20:42:00,49.1,46.9,29.74,East,94,5.0,8.0,92,0.07,,,0.20,0.00,VWS V14.01,2013-02-19 02:42:00,
2013-02-18 20:47:00,49.1,47.2,29.74,SSW,207,4.0,12.0,93,0.07,,,0.20,0.00,VWS V14.01,2013-02-19 02:47:00,
2013-02-18 20:50:00,47.0,45.7,29.81,West,259,1.0,3.0,95,0.18,,,0.38,0.00,VWS V14.01,2013-02-19 02:50:00,
2013-02-18 20:52:00,49.1,47.2,29.74,SSW,196,6.0,12.0,93,0.05,,,0.20,0.00,VWS V14.01,2013-02-19 02:52:00,
2013-02-18 20:57:00,49.1,47.2,29.74,SSW,194,6.0,12.0,93,0.06,,,0.21,0.00,VWS V14.01,2013-02-19 02:57:00,
2013-02-18 21:00:00,47.1,45.7,29.79,South,182,2.0,4.0,95,0.18,,,0.39,0.00,VWS V14.01,2013-02-19 03:00:00,
2013-02-18 21:03:00,49.1,47.5,29.74,SSW,203,5.0,14.0,94,0.07,,,0.23,0.00,VWS V14.01,2013-02-19 03:03:00,
2013-02-18 21:08:00,49.2,47.5,29.74,SW,216,4.0,14.0,94,0.08,,,0.24,0.00,VWS V14.01,2013-02-19 03:08:00,
2013-02-18 21:10:00,47.3,46.2,29.79,South,182,1.0,13.0,96,0.17,,,0.41,0.00,VWS V14.01,2013-02-19 03:10:00,
2013-02-18 21:13:00,49.2,47.5,29.74,WNW,286,2.0,13.0,94,0.08,,,0.25,0.00,VWS V14.01,2013-02-19 03:13:00,
2013-02-18 21:18:00,48.5,46.6,29.74,WNW,284,5.0,20.0,93,0.12,,,0.29,0.00,VWS V14.01,2013-02-19 03:18:00,
2013-02-18 21:20:00,47.4,46.3,29.78,SSW,206,3.0,5.0,96,0.13,,,0.42,0.00,VWS V14.01,2013-02-19 03:20:00,
2013-02-18 21:23:00,47.9,46.0,29.82,WSW,239,0.0,8.0,93,0.13,,,0.31,0.00,VWS V14.01,2013-02-19 03:23:00,
2013-02-18 21:28:00,47.6,45.7,29.82,SSW,207,6.0,6.0,93,0.14,,,0.33,0.00,VWS V14.01,2013-02-19 03:28:00,
2013-02-18 21:30:00,47.9,47.1,29.77,SSW,212,5.0,8.0,97,0.10,,,0.43,0.00,VWS V14.01,2013-02-19 03:30:00,
2013-02-18 21:33:00,47.4,45.8,29.82,West,281,1.0,9.0,94,0.15,,,0.34,0.00,VWS V14.01,2013-02-19 03:33:00,
2013-02-18 21:38:00,47.3,45.7,29.83,SW,223,3.0,3.0,94,0.16,,,0.35,0.00,VWS V14.01,2013-02-19 03:38:00,
2013-02-18 21:40:00,48.2,47.4,29.77,SSW,213,2.0,10.0,97,0.09,,,0.44,0.00,VWS V14.01,2013-02-19 03:40:00,
2013-02-18 21:43:00,47.3,45.7,29.83,SW,219,2.0,6.0,94,0.17,,,0.36,0.00,VWS V14.01,2013-02-19 03:43:00,
2013-02-18 21:48:00,47.1,45.5,29.83,West,259,0.0,0.0,94,0.17,,,0.37,0.00,VWS V14.01,2013-02-19 03:48:00,
2013-02-18 21:50:00,48.3,47.5,29.77,SW,225,2.0,9.0,97,0.08,,,0.45,0.00,VWS V14.01,2013-02-19 03:50:00,
2013-02-18 21:53:00,47.1,45.5,29.82,West,259,0.0,3.0,94,0.17,,,0.37,0.00,VWS V14.01,2013-02-19 03:53:00,
2013-02-18 21:58:00,47.0,45.7,29.82,West,259,0.0,1.0,95,0.17,,,0.38,0.00,VWS V14.01,2013-02-19 03:58:00,
2013-02-18 22:00:00,48.5,47.7,29.77,SSW,205,3.0,8.0,97,0.07,,,0.45,0.00,VWS V14.01,2013-02-19 04:00:00,
2013-02-18 22:03:00,47.1,45.7,29.82,West,259,1.0,2.0,95,0.18,,,0.39,0.00,VWS V14.01,2013-02-19 04:03:00,
2013-02-18 22:08:00,47.1,45.7,29.79,South,174,4.0,5.0,95,0.16,,,0.40,0.00,VWS V14.01,2013-02-19 04:08:00,
2013-02-18 22:10:00,48.3,47.5,29.77,SSW,213,2.0,5.0,97,0.07,,,0.46,0.00,VWS V14.01,2013-02-19 04:10:00,
2013-02-18 22:13:00,47.1,46.0,29.79,South,183,3.0,9.0,96,0.16,,,0.40,0.00,VWS V14.01,2013-02-19 04:13:00,
2013-02-18 22:18:00,47.3,46.2,29.79,South,182,1.0,1.0,96,0.12,,,0.41,0.00,VWS V14.01,2013-02-19 04:18:00,
2013-02-18 22:20:00,48.5,47.7,29.79,SSW,204,2.0,5.0,97,0.06,,,0.47,0.00,VWS V14.01,2013-02-19 04:20:00,
2013-02-18 22:23:00,47.4,46.3,29.78,SSW,194,2.0,5.0,96,0.12,,,0.41,0.00,VWS V14.01,2013-02-19 04:23:00,
2013-02-18 22:28:00,47.4,46.3,29.78,SSW,206,2.0,3.0,96,0.09,,,0.42,0.00,VWS V14.01,2013-02-19 04:28:00,
2013-02-18 22:30:00,48.5,47.7,29.80,NNW,327,4.0,6.0,97,0.05,,,0.47,0.00,VWS V14.01,2013-02-19 04:30:00,
2013-02-18 22:33:00,47.7,46.6,29.78,SW,233,3.0,8.0,96,0.09,,,0.42,0.00,VWS V14.01,2013-02-19 04:33:00,
2013-02-18 22:38:00,47.9,47.1,29.77,SSW,212,3.0,5.0,97,0.08,,,0.43,0.00,VWS V14.01,2013-02-19 04:38:00,
2013-02-18 22:40:00,48.5,48.0,29.80,WSW,251,0.0,8.0,98,0.05,,,0.48,0.00,VWS V14.01,2013-02-19 04:40:00,
2013-02-18 22:43:00,48.0,47.2,29.77,SSW,209,3.0,10.0,97,0.08,,,0.43,0.00,VWS V14.01,2013-02-19 04:43:00,
2013-02-18 22:48:00,48.2,47.4,29.77,SSW,213,2.0,3.0,97,0.07,,,0.44,0.00,VWS V14.01,2013-02-19 04:48:00,
2013-02-18 22:50:00,48.5,48.0,29.81,WSW,246,0.0,5.0,98,0.04,,,0.48,0.00,VWS V14.01,2013-02-19 04:50:00,
2013-02-18 22:53:00,48.3,47.5,29.77,SW,217,4.0,9.0,97,0.07,,,0.44,0.00,VWS V14.01,2013-02-19 04:53:00,
2013-02-18 22:58:00,48.3,47.5,29.77,SW,225,2.0,3.0,97,0.07,,,0.45,0.00,VWS V14.01,2013-02-19 04:58:00,
2013-02-18 23:00:00,48.3,47.5,29.77,SW,225,0.0,3.0,97,0.07,,,0.45,0.00,VWS V14.01,2013-02-19 05:00:00,
2013-02-18 23:05:00,48.5,47.7,29.77,SW,225,1.0,4.0,97,0.07,,,0.45,0.00,VWS V14.01,2013-02-19 05:05:00,
2013-02-18 23:10:00,48.5,47.7,29.77,SSW,213,1.0,4.0,97,0.06,,,0.45,0.00,VWS V14.01,2013-02-19 05:10:00,
2013-02-18 23:15:00,48.5,47.7,29.77,SSW,213,1.0,4.0,97,0.07,,,0.46,0.00,VWS V14.01,2013-02-19 05:15:00,
2013-02-18 23:20:00,48.3,47.5,29.77,SSW,213,4.0,5.0,97,0.05,,,0.46,0.00,VWS V14.01,2013-02-19 05:20:00,
2013-02-18 23:25:00,48.3,47.5,29.79,SSW,213,2.0,5.0,97,0.06,,,0.47,0.00,VWS V14.01,2013-02-19 05:25:00,
2013-02-18 23:30:00,48.5,47.7,29.79,SSW,204,0.0,2.0,97,0.05,,,0.47,0.00,VWS V14.01,2013-02-19 05:30:00,
2013-02-18 23:35:00,48.5,47.7,29.79,SW,215,4.0,6.0,97,0.05,,,0.47,0.00,VWS V14.01,2013-02-19 05:35:00,
2013-02-18 23:40:00,48.5,47.7,29.80,NW,314,1.0,6.0,97,0.04,,,0.47,0.00,VWS V14.01,2013-02-19 05:40:00,
2013-02-18 23:45:00,48.5,48.0,29.80,WSW,257,1.0,8.0,98,0.05,,,0.48,0.00,VWS V14.01,2013-02-19 05:45:00,
2013-02-18 23:50:00,48.5,48.0,29.80,SW,223,3.0,5.0,98,0.04,,,0.48,0.00,VWS V14.01,2013-02-19 05:50:00,
2013-02-18 23:55:00,48.5,48.0,29.81,WSW,240,1.0,5.0,98,0.04,,,0.48,0.00,VWS V14.01,2013-02-19 05:55:00,